Temperature
4 4 4 4 4 4 4 4 4 4 4 4 4 4 4 4 4 4 4 4 4 4 4 4 4 4 4 4 3 3 3 3 2 3 3 3 3 3 3 3 3 3 3
3 3 4 3 4 4 4 3 3 3 3 3 3 3 3 3 3 3 3 3 3 3 4 4 4 4 3 3 3 3 3 2 2 2 2 2 2 2 2 2 2 2 2
3 3 3 3 3 3 3 3 3 3 3 3 3 3 3 3 3 3 3 3 3 3 3 3 3 3 3 3 3 2 2 2 2 2 2 2 2 2 2 2 2 2 2
2 2 2 2 2 2 2 2 2 2 2 2 2 2 2 2 2 2 2 2 2 3 3 3 3 3 2 2 2 2 2 2 1 1 1 1 1 1 1 1 1 2 2
2 2 2 2 2 2 2 2 2 2 2 2 2 2 2 2 2 2 2 2 2 2 2 2 2 2 2 2 2 2 1 1 1 1 1 1 1 1 0 0 0 1 1
1 1 1 1 1 1 1 1 1 1 1 1 1 1 1 1 1 1 1 1 1 2 2 2 2 2 2 1 1 1 1 1 1 0 0 0 0 0 -0 -0 -1 -1 -0
0 0 0 0 0 0 0 0 0 0 0 0 0 0 0 1 1 1 1 1 1 1 1 1 1 1 1 1 1 1 0 0 0 0 -0 -0 -0 -0 -1 -1 -1 -1 -1
-0 -0 -0 -0 -1 -0 -0 -0 -0 -0 -0 -0 -0 -0 -0 -0 0 0 0 0 0 0 0 0 0 0 0 0 0 0 0 0 -0 -0 -0 -0 -1 -1 -1 -1 -1 -1 -1
-1 -1 -1 -1 -1 -1 -1 -1 -1 -1 -1 -1 -1 -1 -1 -1 -1 -0 -0 -0 -0 -0 -0 -0 -0 -0 -0 -0 -0 -0 0 -0 -0 -1 -1 -1 -1 -1 -1 -1 -1 -1 -1
-1 -1 -1 -1 -1 -2 -2 -2 -2 -2 -2 -2 -2 -2 -2 -1 -1 -1 -1 -1 -1 -1 -1 -1 -1 -1 -1 -1 -1 -1 -1 -1 -1 -1 -1 -1 -1 -1 -1 -1 -1 -2 -2
-2 -2 -2 -2 -2 -2 -2 -2 -2 -2 -2 -2 -2 -2 -2 -2 -2 -2 -2 -2 -1 -1 -1 -1 -1 -1 -1 -1 -1 -1 -1 -1 -1 -1 -1 -1 -1 -1 -1 -1 -2 -2 -2
-2 -2 -2 -3 -3 -3 -3 -3 -3 -3 -3 -3 -3 -3 -2 -2 -2 -2 -2 -2 -2 -2 -2 -2 -2 -2 -2 -2 -2 -2 -2 -2 -2 -2 -2 -1 -1 -1 -1 -1 -1 -2 -2
-3 -3 -3 -3 -3 -3 -3 -3 -3 -3 -3 -3 -3 -3 -3 -3 -3 -3 -2 -2 -2 -3 -3 -3 -2 -2 -2 -2 -2 -2 -2 -2 -2 -2 -2 -2 -2 -2 -2 -2 -2 -2 -2
-3 -3 -4 -4 -4 -4 -4 -4 -4 -4 -4 -4 -4 -4 -3 -3 -3 -3 -3 -3 -3 -3 -3 -3 -3 -3 -3 -3 -3 -3 -3 -3 -3 -3 -2 -2 -2 -2 -2 -2 -2 -2 -2
-4 -4 -4 -5 -5 -5 -5 -5 -5 -4 -4 -4 -4 -4 -4 -4 -4 -4 -3 -3 -3 -3 -3 -3 -3 -3 -3 -3 -3 -3 -3 -3 -3 -3 -3 -3 -2 -2 -2 -3 -3 -2 -2
-4 -5 -5 -5 -5 -6 -5 -5 -5 -5 -5 -5 -5 -4 -4 -4 -4 -4 -4 -4 -4 -4 -4 -4 -4 -4 -3 -3 -3 -3 -3 -3 -3 -3 -3 -3 -3 -3 -3 -3 -3 -3 -3
-5 -5 -5 -6 -6 -6 -6 -6 -6 -5 -5 -5 -5 -5 -5 -5 -5 -5 -4 -4 -4 -4 -4 -4 -4 -4 -4 -4 -4 -4 -4 -4 -4 -4 -3 -3 -3 -3 -3 -3 -3 -3 -3
-5 -5 -6 -6 -6 -6 -6 -6 -6 -6 -6 -5 -5 -5 -5 -5 -5 -5 -5 -4 -4 -4 -4 -4 -5 -5 -5 -5 -5 -4 -4 -4 -4 -4 -4 -4 -4 -4 -3 -3 -3 -4 -4
-5 -6 -6 -6 -6 -6 -6 -6 -6 -6 -6 -6 -6 -5 -5 -5 -5 -5 -5 -5 -5 -5 -5 -5 -5 -5 -5 -5 -5 -5 -5 -5 -4 -4 -4 -4 -4 -4 -4 -4 -4 -4 -4
-6 -6 -6 -6 -6 -6 -6 -6 -6 -6 -6 -6 -6 -6 -6 -5 -5 -5 -5 -5 -5 -5 -5 -5 -5 -5 -5 -5 -5 -5 -5 -5 -5 -5 -4 -4 -4 -4 -4 -4 -4 -4 -4
-6 -6 -6 -6 -6 -6 -6 -6 -6 -6 -6 -6 -6 -6 -6 -6 -6 -6 -6 -6 -5 -5 -5 -6 -6 -5 -5 -5 -5 -5 -5 -5 -5 -5 -5 -5 -4 -4 -4 -4 -4 -4 -4
-6 -6 -6 -6 -6 -6 -7 -6 -6 -6 -6 -6 -6 -6 -6 -6 -6 -6 -6 -6 -6 -6 -6 -6 -6 -6 -6 -5 -5 -5 -5 -5 -5 -5 -5 -5 -5 -5 -4 -4 -4 -4 -4
-6 -6 -6 -6 -7 -7 -7 -7 -6 -6 -6 -6 -6 -6 -6 -6 -6 -6 -6 -6 -6 -6 -6 -6 -6 -6 -6 -6 -6 -5 -5 -5 -5 -5 -5 -5 -5 -5 -5 -4 -4 -4 -5
-6 -6 -7 -7 -7 -7 -7 -7 -7 -7 -7 -7 -7 -7 -7 -7 -7 -6 -6 -6 -6 -6 -6 -6 -6 -6 -6 -6 -6 -6 -5 -5 -5 -5 -5 -5 -5 -5 -5 -4 -4 -4 -5
-7 -7 -7 -7 -7 -7 -7 -7 -7 -7 -7 -7 -7 -7 -7 -7 -7 -7 -6 -6 -6 -6 -6 -6 -6 -6 -6 -6 -6 -6 -6 -6 -5 -5 -5 -5 -5 -5 -5 -5 -4 -4 -5
-7 -7 -7 -7 -7 -7 -7 -7 -7 -7 -7 -7 -7 -7 -7 -7 -7 -7 -6 -6 -6 -6 -6 -6 -6 -6 -6 -6 -6 -6 -6 -6 -5 -5 -5 -5 -5 -5 -5 -5 -5 -5 -5
Wind_Speed
2 1 1 1 2 1 1 2 2 2 2 3 3 3 3 3 3 3 3 3 4 4 4 4 4 4 4 4 4 4 4 4 6 5 3 3 4 4 5 5 6 6 7
2 1 1 0 1 1 1 1 1 1 2 2 3 3 3 3 3 4 4 4 4 5 4 4 4 4 4 4 4 4 4 4 5 6 4 3 4 4 4 4 5 6 6
2 1 1 1 0 0 1 1 1 1 1 2 2 3 3 3 3 4 4 4 4 4 4 4 4 4 4 3 3 4 3 3 3 4 5 3 3 3 4 5 5 5 6
2 2 2 1 1 1 1 1 1 1 1 1 1 2 2 2 3 3 3 3 3 3 3 3 3 4 4 4 3 4 3 3 3 3 4 4 3 3 3 4 5 4 5
2 2 1 2 1 1 1 1 1 0 0 0 1 1 1 1 2 2 2 2 2 2 2 3 3 4 5 5 4 3 3 3 3 3 4 4 4 3 4 3 5 5 5
2 2 2 2 2 2 1 1 1 1 1 0 0 1 1 2 2 2 2 2 2 2 2 2 2 3 4 4 5 5 5 4 4 4 4 5 5 5 4 4 4 5 5
2 2 2 2 3 2 2 2 2 1 1 1 1 0 1 2 3 3 3 1 1 2 2 2 2 2 3 2 3 4 4 5 5 5 5 5 5 5 5 5 5 5 5
2 2 2 3 3 3 3 2 2 1 1 1 1 1 1 2 3 3 3 2 1 1 2 2 2 3 3 2 2 2 3 3 4 4 5 6 6 5 5 6 6 5 4
2 2 2 2 2 3 3 3 2 1 1 2 2 2 2 3 4 4 3 2 1 2 2 2 2 3 3 2 2 3 3 3 3 4 5 5 6 7 6 3 3 3 4
2 2 2 2 2 2 2 2 2 2 2 2 2 2 2 3 4 4 3 1 1 2 2 2 3 3 3 2 2 2 3 3 3 3 3 4 4 4 5 3 4 3 3
2 2 2 2 2 1 1 1 2 2 2 2 2 3 3 3 4 4 4 2 1 2 2 2 2 2 3 3 2 2 3 3 2 2 2 2 2 2 3 3 2 3 3
2 3 3 3 2 2 2 2 2 2 2 2 2 3 3 3 4 4 4 3 2 2 2 2 2 2 2 2 2 3 3 2 1 1 2 2 2 3 3 3 3 3 3
3 3 3 3 3 2 2 2 2 2 1 2 2 3 3 3 3 5 4 4 3 2 1 1 2 3 3 2 3 3 2 1 1 1 2 2 2 3 3 3 3 2 3
3 3 3 3 4 3 3 2 2 2 2 2 2 3 3 3 3 2 2 2 2 1 1 1 2 3 3 2 2 2 1 1 1 2 2 2 2 2 2 2 2 2 2
2 2 3 3 3 3 3 2 3 3 2 2 2 3 3 3 4 4 3 2 1 1 0 1 1 2 2 2 2 1 1 1 1 2 2 2 2 2 2 2 2 2 2
2 2 2 2 2 2 3 4 5 4 5 6 5 5 4 5 6 5 4 3 2 1 1 0 1 1 2 2 2 2 1 2 2 2 2 2 2 2 3 3 2 2 2
1 1 2 2 2 2 2 3 4 5 6 6 7 6 6 7 6 6 4 3 2 1 1 0 1 1 2 2 2 2 2 2 2 2 2 2 2 2 2 2 3 3 3
1 2 2 2 2 2 2 2 3 3 4 5 6 7 7 7 7 6 5 3 2 2 1 1 1 1 2 2 2 2 2 2 2 2 2 2 2 2 2 2 2 2 3
2 1 1 1 2 2 2 2 3 3 3 4 4 5 7 6 6 6 5 2 2 1 1 1 1 2 2 2 2 2 2 2 2 2 2 2 2 2 2 2 2 3 3
1 3 2 2 2 2 2 2 2 2 3 3 3 4 4 4 3 4 3 2 2 2 2 2 2 2 2 2 2 2 2 2 2 2 2 2 2 2 2 2 2 2 2
2 2 3 2 2 2 2 2 2 2 2 3 3 4 5 3 2 3 2 2 2 2 2 2 2 2 2 2 2 2 2 2 2 2 2 2 2 2 2 2 2 2 2
1 1 2 2 2 2 3 2 2 2 2 3 3 4 5 3 3 2 2 3 2 2 1 1 2 2 2 2 2 2 2 2 2 2 2 2 2 2 2 2 2 2 2
1 2 2 2 2 3 3 2 2 2 2 3 3 3 3 3 3 3 3 3 2 2 2 2 2 2 2 2 2 2 2 2 2 2 2 2 2 2 1 1 2 2 2
2 2 2 2 2 2 2 2 2 2 2 3 3 3 3 3 3 3 3 3 2 2 2 2 2 2 3 3 3 3 3 3 3 2 2 1 1 1 1 1 1 1 1
1 2 2 2 2 2 2 2 2 2 3 3 3 3 3 3 3 3 3 3 3 3 3 3 2 3 3 3 3 4 4 4 3 2 1 1 0 1 1 1 1 1 1
1 2 2 2 2 2 2 3 3 3 3 3 3 3 3 3 3 3 3 3 2 2 3 3 3 3 4 4 4 4 4 4 3 2 0 1 0 0 0 0 1 1 1
Wind_Direction
316 279 257 243 228 217 229 237 221 207 203 204 205 213 217 219 217 221 234 232 230 237 233 228 239 239 230 226 222 221 223 224 253 272 263 265 267 273 298 304 302 301 302
330 345 331 274 223 203 250 257 223 212 212 210 208 216 226 226 222 224 233 236 231 234 236 234 243 237 230 227 220 226 233 230 237 266 279 274 276 277 292 294 304 303 299
360 21 19 359 352 273 261 238 207 210 223 220 212 224 232 231 232 235 232 234 233 235 234 232 238 224 228 231 225 230 235 238 230 249 278 283 286 295 305 302 298 297 301
20 33 29 6 348 299 255 229 197 192 203 230 239 243 245 247 243 238 235 235 240 242 237 231 230 225 225 224 231 230 225 226 231 246 273 286 283 287 289 302 307 304 303
27 29 3 360 13 32 42 49 53 79 295 248 261 290 296 280 252 240 235 232 230 242 249 242 238 235 238 234 232 226 222 227 237 249 268 283 284 289 287 291 295 303 299
34 22 16 25 29 33 39 54 43 34 24 12 25 313 318 304 297 288 272 229 232 238 251 259 255 254 256 256 249 248 240 237 240 250 261 264 276 278 279 282 288 302 299
35 28 26 33 31 26 40 48 41 32 37 15 357 332 305 296 311 308 307 285 252 258 256 263 276 285 292 275 271 278 273 266 253 243 247 258 265 266 271 276 274 280 280
35 34 35 38 29 29 39 35 25 29 12 341 339 338 321 313 324 327 330 326 301 286 277 268 270 280 270 265 270 273 272 270 263 254 244 254 261 260 253 263 270 280 291
25 21 21 28 32 31 28 14 13 37 7 1 354 349 341 326 332 337 334 323 306 294 289 296 286 273 282 281 274 280 288 289 292 289 286 289 297 296 286 276 273 284 299
0 356 1 28 30 24 18 8 22 27 14 9 358 351 338 324 327 328 324 311 300 299 308 296 288 286 286 278 256 265 282 291 304 313 317 322 323 315 307 265 244 252 283
356 7 11 24 27 14 30 32 30 26 24 13 360 349 340 331 331 332 325 310 293 293 295 294 286 298 297 294 284 272 278 285 281 287 300 316 327 321 314 305 268 237 247
17 22 20 17 11 10 32 19 20 20 16 359 0 351 342 331 334 338 339 330 315 287 282 289 296 310 304 307 309 318 322 324 310 312 318 322 322 315 311 311 304 290 258
27 26 21 12 12 16 24 14 6 360 354 340 345 338 333 335 337 344 340 338 329 317 298 312 330 325 317 316 333 340 348 1 353 329 312 304 300 301 312 322 329 330 324
25 19 20 22 18 18 13 8 354 335 335 336 335 328 325 328 330 334 328 323 328 322 326 335 342 343 343 342 343 345 355 352 312 293 298 304 316 326 331 332 331 341 347
15 8 12 18 16 12 9 0 346 334 331 324 316 308 313 319 325 326 318 314 306 306 326 336 344 344 352 353 358 3 358 353 339 325 327 330 335 339 334 332 330 343 346
6 1 5 8 8 10 8 359 360 353 353 352 343 333 328 326 328 331 329 333 336 343 8 326 345 354 347 343 343 345 344 334 324 322 327 329 329 326 328 333 339 346 341
345 334 343 350 349 350 352 353 347 355 2 358 354 350 343 338 340 345 353 357 5 31 22 345 342 338 327 323 326 328 321 318 319 325 326 325 327 326 328 335 341 345 343
349 337 338 331 330 331 330 328 327 332 339 342 348 356 354 352 355 358 357 5 11 26 11 335 323 317 311 312 317 318 323 332 338 338 328 325 329 329 330 333 337 336 331
341 330 328 321 322 323 321 321 321 323 328 328 332 345 356 356 0 5 6 10 358 352 345 328 316 312 313 312 312 314 318 322 328 326 323 324 328 332 330 328 330 338 344
324 322 324 315 317 319 316 314 316 323 328 326 327 328 339 350 354 356 359 358 350 343 341 333 323 318 318 317 320 321 321 325 327 321 319 324 325 322 321 327 335 344 340
311 313 324 322 312 310 311 311 312 316 320 322 321 328 340 339 340 344 345 343 333 326 326 326 325 324 321 318 319 320 322 321 320 319 323 324 321 322 325 328 336 342 343
307 307 313 309 308 310 312 312 313 315 320 322 324 328 342 344 339 338 333 328 325 317 305 301 305 308 306 308 309 311 316 319 316 316 318 318 317 320 323 338 350 354 2
319 319 321 320 317 315 325 325 320 316 315 315 316 323 331 333 332 330 327 324 324 325 332 328 312 317 325 317 308 298 294 296 292 288 291 303 309 317 327 344 352 354 357
317 317 316 318 321 321 319 315 314 315 312 313 318 321 323 323 324 323 321 322 321 326 327 322 317 319 323 326 323 312 304 302 294 264 253 265 293 318 327 350 357 352 355
308 309 309 310 317 318 316 313 313 311 309 312 314 317 320 322 323 321 321 321 319 319 326 326 320 316 312 314 317 319 322 327 329 314 252 209 248 301 321 2 17 21 33
301 305 315 322 319 312 309 310 314 314 311 313 312 310 312 314 313 313 316 320 323 325 329 326 319 315 312 314 319 326 334 339 350 355 5 125 134 92 42 57 56 52 55
Height
1442 1442 1442 1443 1444 1444 1444 1445 1445 1446 1446 1446 1447 1448 1449 1450 1451 1452 1452 1453 1454 1454 1454 1454 1453 1454 1453 1453 1454 1454 1454 1454 1451 1450 1451 1450 1450 1449 1448 1447 1446 1445 1443
1439 1439 1439 1440 1440 1440 1441 1442 1442 1442 1443 1443 1443 1444 1445 1445 1446 1447 1448 1449 1449 1449 1449 1449 1448 1449 1448 1448 1449 1449 1449 1449 1449 1446 1446 1445 1445 1445 1444 1442 1441 1440 1438
1436 1436 1436 1437 1437 1437 1438 1438 1439 1439 1439 1440 1440 1440 1441 1441 1442 1443 1444 1444 1444 1445 1445 1444 1444 1444 1444 1444 1444 1445 1445 1445 1445 1443 1441 1441 1441 1440 1439 1438 1437 1435 1433
1435 1434 1434 1434 1434 1435 1435 1435 1436 1436 1436 1436 1437 1437 1438 1438 1438 1439 1440 1440 1440 1440 1441 1440 1440 1440 1440 1440 1440 1441 1440 1440 1440 1439 1438 1437 1436 1436 1435 1433 1431 1430 1428
1433 1432 1432 1431 1432 1432 1432 1432 1432 1432 1433 1433 1433 1434 1434 1434 1435 1435 1436 1436 1436 1436 1436 1436 1436 1436 1436 1436 1436 1436 1436 1436 1435 1435 1434 1433 1432 1432 1430 1428 1427 1425 1423
1431 1431 1430 1430 1429 1429 1429 1429 1429 1429 1429 1429 1430 1430 1431 1431 1432 1432 1432 1432 1432 1432 1432 1432 1432 1432 1432 1432 1432 1433 1433 1432 1431 1431 1430 1429 1428 1428 1427 1425 1423 1421 1418
1430 1429 1429 1428 1427 1427 1427 1427 1426 1426 1426 1426 1427 1427 1428 1428 1428 1429 1429 1429 1428 1428 1429 1429 1428 1428 1428 1428 1428 1429 1429 1428 1428 1428 1426 1425 1425 1424 1423 1421 1420 1418 1416
1429 1428 1427 1426 1426 1425 1425 1424 1424 1424 1424 1424 1424 1424 1424 1425 1425 1425 1425 1425 1425 1425 1425 1425 1425 1425 1425 1425 1425 1425 1424 1424 1424 1424 1423 1422 1421 1420 1420 1418 1417 1414 1412
1427 1427 1426 1425 1425 1424 1423 1422 1422 1421 1421 1421 1422 1422 1422 1422 1422 1422 1422 1422 1421 1421 1422 1422 1422 1422 1422 1422 1421 1421 1420 1420 1420 1420 1419 1419 1418 1417 1416 1415 1413 1411 1408
1427 1426 1425 1425 1424 1423 1422 1421 1420 1419 1419 1419 1420 1420 1420 1420 1420 1420 1420 1419 1419 1418 1419 1419 1419 1419 1419 1418 1418 1418 1417 1416 1416 1416 1416 1415 1414 1413 1412 1411 1409 1407 1405
1427 1426 1425 1424 1423 1422 1421 1420 1419 1419 1419 1418 1418 1418 1418 1418 1418 1418 1418 1417 1417 1416 1416 1416 1416 1416 1416 1415 1415 1415 1414 1414 1413 1413 1412 1411 1410 1409 1408 1407 1406 1405 1403
1426 1425 1424 1423 1422 1421 1420 1419 1419 1418 1418 1417 1417 1416 1416 1416 1416 1416 1416 1415 1415 1414 1414 1413 1413 1413 1413 1413 1412 1411 1411 1411 1410 1410 1409 1408 1407 1406 1405 1404 1403 1401 1401
1426 1424 1423 1422 1421 1420 1419 1418 1418 1417 1417 1416 1415 1415 1414 1414 1414 1414 1414 1413 1413 1412 1412 1411 1411 1410 1410 1409 1409 1409 1409 1408 1407 1407 1406 1405 1404 1404 1402 1401 1400 1399 1398
1425 1424 1423 1422 1420 1419 1419 1418 1417 1417 1416 1415 1415 1414 1413 1413 1413 1412 1411 1411 1410 1410 1409 1409 1408 1407 1407 1406 1406 1406 1406 1406 1405 1405 1403 1403 1402 1401 1400 1399 1397 1396 1395
1425 1423 1422 1421 1420 1419 1418 1418 1417 1416 1416 1415 1414 1414 1413 1412 1411 1411 1410 1409 1408 1408 1407 1407 1406 1405 1404 1404 1404 1404 1403 1403 1403 1402 1402 1401 1400 1399 1398 1397 1396 1395 1393
1423 1422 1421 1420 1419 1418 1418 1417 1417 1416 1415 1415 1414 1413 1411 1411 1410 1409 1408 1407 1406 1406 1406 1405 1404 1403 1403 1402 1402 1402 1402 1401 1401 1401 1400 1399 1398 1397 1397 1396 1395 1393 1392
1423 1422 1421 1420 1419 1418 1417 1416 1415 1414 1414 1413 1412 1411 1410 1409 1408 1407 1406 1405 1404 1404 1403 1403 1402 1402 1401 1401 1400 1400 1400 1400 1400 1399 1399 1398 1397 1396 1395 1395 1394 1392 1391
1422 1421 1420 1419 1418 1417 1416 1415 1414 1413 1411 1410 1410 1409 1408 1407 1406 1405 1404 1404 1402 1402 1401 1401 1401 1400 1400 1400 1399 1399 1399 1399 1399 1398 1397 1397 1396 1395 1394 1393 1393 1392 1390
1421 1420 1419 1418 1417 1416 1415 1415 1414 1412 1411 1409 1408 1407 1407 1405 1404 1403 1403 1402 1401 1400 1400 1400 1400 1399 1399 1399 1398 1398 1398 1397 1397 1397 1396 1396 1395 1394 1393 1393 1392 1391 1390
1420 1419 1418 1417 1416 1415 1414 1413 1412 1411 1410 1408 1407 1406 1405 1404 1403 1402 1401 1401 1400 1399 1399 1399 1399 1398 1398 1398 1397 1397 1397 1396 1396 1396 1395 1394 1394 1393 1393 1392 1391 1390 1389
1419 1418 1417 1416 1415 1414 1413 1412 1411 1410 1408 1407 1406 1406 1405 1403 1402 1401 1400 1399 1399 1398 1398 1398 1398 1397 1397 1397 1397 1396 1396 1395 1395 1395 1394 1394 1393 1393 1392 1392 1391 1390 1389
1418 1417 1416 1415 1414 1413 1412 1411 1410 1409 1407 1406 1405 1404 1403 1402 1401 1400 1399 1398 1398 1397 1397 1397 1397 1396 1396 1396 1396 1395 1395 1394 1394 1394 1394 1393 1393 1393 1392 1391 1391 1390 1389
1417 1416 1415 1414 1413 1412 1411 1409 1409 1408 1406 1405 1404 1403 1402 1401 1400 1399 1398 1398 1397 1397 1396 1396 1396 1396 1395 1395 1395 1394 1394 1394 1394 1393 1393 1393 1392 1392 1391 1390 1390 1390 1389
1416 1415 1414 1413 1411 1410 1409 1408 1407 1406 1405 1404 1403 1402 1401 1400 1399 1398 1398 1397 1396 1396 1395 1395 1395 1395 1394 1394 1394 1394 1393 1393 1393 1393 1392 1392 1392 1391 1391 1390 1390 1390 1390
1415 1414 1413 1411 1410 1409 1408 1407 1406 1405 1404 1403 1402 1401 1400 1399 1398 1397 1397 1396 1396 1395 1395 1394 1394 1394 1393 1393 1393 1392 1392 1392 1392 1392 1391 1391 1391 1391 1391 1390 1390 1390 1390
1413 1413 1411 1410 1409 1408 1407 1406 1405 1404 1403 1402 1401 1400 1399 1398 1397 1397 1396 1395 1395 1394 1394 1393 1393 1393 1392 1392 1392 1391 1391 1390 1390 1390 1390 1390 1390 1390 1391 1390 1390 1390 1390